| time (UTC) | temp C | wind direction | speed KPH | gust KPH | rain 1hr cm | rain 24hr cm | rain mn cm | humidity % | barometer mb |
| 20260502233026 | 18 | 297 | 0.0 | 0.0 | 0.00 | 0.00 | 0.00 | 39 | 1015.6 |
| 20260502231508 | 18 | 5 | 0.0 | 0.0 | 0.00 | 0.00 | 0.00 | 39 | 1015.6 |
| 20260502230051 | 18 | 271 | 0.0 | 0.0 | 0.00 | 0.00 | 0.00 | 40 | 1015.6 |
| 20260502224550 | 19 | 269 | 0.0 | 0.0 | 0.00 | 0.00 | 0.00 | 39 | 1015.7 |
| 20260502223040 | 18 | 296 | 0.0 | 0.0 | 0.00 | 0.00 | 0.00 | 41 | 1015.6 |
| 20260502221532 | 18 | 332 | 0.0 | 0.0 | 0.00 | 0.00 | 0.00 | 41 | 1015.5 |
| 20260502220021 | 19 | 291 | 0.0 | 0.0 | 0.00 | 0.00 | 0.00 | 39 | 1015.4 |
| 20260502214514 | 19 | 337 | 0.0 | 0.0 | 0.00 | 0.00 | 0.00 | 40 | 1015.3 |
| 20260502213003 | 19 | 284 | 0.0 | 0.0 | 0.00 | 0.00 | 0.00 | 40 | 1015.3 |
| 20260502211503 | 20 | 35 | 0.0 | 0.0 | 0.00 | 0.00 | 0.00 | 40 | 1015.2 |
| 20260502210006 | 19 | 333 | 0.0 | 0.0 | 0.00 | 0.00 | 0.00 | 41 | 1015.3 |
| 20260502204502 | 20 | 292 | 0.0 | 0.0 | 0.00 | 0.00 | 0.00 | 38 | 1015.3 |
| 20260502203059 | 19 | 281 | 0.0 | 0.0 | 0.00 | 0.00 | 0.00 | 38 | 1015.4 |
| 20260502201601 | 19 | 224 | 0.0 | 0.0 | 0.00 | 0.00 | 0.00 | 38 | 1015.5 |
| 20260502200100 | 19 | 282 | 0.0 | 0.0 | 0.00 | 0.00 | 0.00 | 39 | 1015.5 |
| 20260502194603 | 19 | 333 | 0.0 | 0.0 | 0.00 | 0.00 | 0.00 | 37 | 1015.5 |
| 20260502193057 | 19 | 329 | 0.0 | 0.0 | 0.00 | 0.00 | 0.00 | 40 | 1015.5 |
| 20260502191539 | 18 | 314 | 0.0 | 0.0 | 0.00 | 0.00 | 0.00 | 43 | 1015.5 |
| 20260502190042 | 18 | 312 | 0.0 | 0.0 | 0.00 | 0.00 | 0.00 | 43 | 1015.7 |
| 20260502184521 | 18 | 355 | 0.0 | 0.0 | 0.00 | 0.00 | 0.00 | 44 | 1015.8 |
| 20260502183016 | 18 | 309 | 0.0 | 0.0 | 0.00 | 0.00 | 0.00 | 45 | 1015.9 |
| 20260502181557 | 18 | 314 | 0.0 | 0.0 | 0.00 | 0.00 | 0.00 | 46 | 1016.0 |
| 20260502163053 | 15 | 271 | 0.0 | 0.0 | 0.00 | 0.00 | 0.00 | 59 | 1016.7 |
| 20260502161533 | 15 | 286 | 0.0 | 0.0 | 0.00 | 0.00 | 0.00 | 61 | 1016.7 |
| 20260502151554 | 13 | 360 | 0.0 | 0.0 | 0.00 | 0.00 | 0.00 | 67 | 1016.3 |
| 20260502123008 | 11 | 308 | 0.0 | 0.0 | 0.00 | 0.00 | 0.00 | 74 | 1014.7 |
| 20260502121541 | -17 | 0.0 | 0.0 | 0.00 | 0.00 | 0.00 | 1014.6 | ||
| 20260502114515 | -17 | 0.0 | 0.0 | 0.00 | 0.00 | 0.00 | 1014.3 | ||
| 20260502113011 | -17 | 0.0 | 0.0 | 0.00 | 0.00 | 0.00 | 1014.3 | ||
| 20260502111555 | -17 | 0.0 | 0.0 | 0.00 | 0.00 | 0.00 | 1014.2 | ||
| 20260502110046 | -17 | 0.0 | 0.0 | 0.00 | 0.00 | 0.00 | 1014.1 | ||
| 20260502104530 | -17 | 0.0 | 0.0 | 0.00 | 0.00 | 0.00 | 1014.2 | ||
| 20260502103020 | -17 | 0.0 | 0.0 | 0.00 | 0.00 | 0.00 | 1013.7 | ||
| 20260502101613 | -17 | 0.0 | 0.0 | 0.00 | 0.00 | 0.00 | 1014.4 | ||
| 20260502100130 | 12 | 69 | 0.0 | 0.0 | 0.00 | 0.00 | 0.00 | 80 | 1014.2 |
| 20260502091524 | 12 | 303 | 0.0 | 0.0 | 0.00 | 0.00 | 0.00 | 80 | 1014.1 |
| 20260502070058 | 13 | 286 | 0.0 | 0.0 | 0.00 | 0.03 | 0.00 | 91 | 1014.1 |
| 20260502064541 | 12 | 263 | 0.0 | 0.0 | 0.00 | 0.03 | 0.00 | 92 | 1014.3 |
| 20260502063037 | 13 | 140 | 0.0 | 0.0 | 0.00 | 0.03 | 0.00 | 93 | 1014.1 |
| 20260502061531 | 13 | 140 | 0.0 | 0.0 | 0.00 | 0.03 | 0.00 | 94 | 1014.2 |
| 20260502060021 | 13 | 140 | 0.0 | 0.0 | 0.00 | 0.03 | 0.00 | 94 | 1014.2 |
| 20260502054559 | 13 | 140 | 0.0 | 0.0 | 0.00 | 0.03 | 0.00 | 94 | 1014.1 |
| 20260502053109 | 13 | 138 | 0.0 | 0.0 | 0.00 | 0.03 | 0.00 | 94 | 1014.1 |
| 20260502051541 | 13 | 138 | 0.0 | 0.0 | 0.00 | 0.03 | 0.00 | 94 | 1014.1 |
| 20260502050038 | 13 | 138 | 0.0 | 0.0 | 0.00 | 0.03 | 0.00 | 94 | 1014.0 |
| 20260502044520 | 13 | 115 | 0.0 | 0.0 | 0.00 | 0.03 | 0.00 | 94 | 1013.9 |
| 20260502043022 | 13 | 115 | 0.0 | 0.0 | 0.00 | 0.03 | 0.00 | 94 | 1013.6 |
| 20260502041605 | 13 | 115 | 0.0 | 0.0 | 0.00 | 0.03 | 0.00 | 94 | 1013.8 |
| 20260502040059 | 13 | 115 | 0.0 | 0.0 | 0.00 | 0.03 | 0.03 | 94 | 1013.9 |
| 20260502034543 | 13 | 115 | 0.0 | 0.0 | 0.00 | 0.03 | 0.03 | 93 | 1013.9 |
| 20260502033038 | 13 | 115 | 0.0 | 0.0 | 0.00 | 0.03 | 0.03 | 93 | 1014.2 |
| 20260502031521 | 13 | 115 | 0.0 | 0.0 | 0.00 | 0.03 | 0.03 | 93 | 1014.5 |
| 20260502030021 | 13 | 115 | 0.0 | 0.0 | 0.00 | 0.03 | 0.03 | 93 | 1014.6 |
| 20260502024502 | 13 | 115 | 0.0 | 0.0 | 0.00 | 0.03 | 0.03 | 93 | 1014.7 |
| 20260502023002 | 13 | 115 | 0.0 | 0.0 | 0.00 | 0.03 | 0.03 | 92 | 1014.7 |
| 20260502021547 | 13 | 115 | 0.0 | 0.0 | 0.00 | 0.03 | 0.03 | 92 | 1014.9 |
| 20260502020046 | 14 | 115 | 0.0 | 0.0 | 0.00 | 0.03 | 0.03 | 91 | 1014.7 |
| 20260502014532 | 14 | 113 | 0.0 | 0.0 | 0.00 | 0.03 | 0.03 | 90 | 1014.8 |
| 20260502013026 | 14 | 113 | 0.0 | 0.0 | 0.00 | 0.03 | 0.03 | 89 | 1014.6 |
| 20260502011508 | 15 | 113 | 0.0 | 0.0 | 0.00 | 0.03 | 0.03 | 87 | 1014.4 |
| 20260502010009 | 15 | 113 | 0.0 | 0.0 | 0.00 | 0.03 | 0.03 | 85 | 1014.1 |
| 20260502004556 | 15 | 115 | 0.0 | 0.0 | 0.00 | 0.03 | 0.03 | 84 | 1013.9 |
| 20260502003049 | 15 | 115 | 0.0 | 0.0 | 0.00 | 0.03 | 0.03 | 83 | 1013.8 |
| 20260502001531 | 15 | 342 | 0.0 | 0.0 | 0.00 | 0.03 | 0.03 | 80 | 1013.5 |
| 20260502000030 | 16 | 342 | 0.0 | 0.0 | 0.00 | 0.03 | 0.03 | 77 | 1013.3 |
| 20260501234515 | 16 | 310 | 0.0 | 0.0 | 0.00 | 0.03 | 0.03 | 75 | 1013.4 |